AirNav   Everest Fuels
 
 1483 users online  

8B1 Hawthorne-Feather Airpark
Hillsboro, New Hampshire, USA

GOING TO HILLSBORO?


FAA INFORMATION EFFECTIVE 09 SEPTEMBER 2021

Location

FAA Identifier: 8B1
Lat/Long: 43-03-40.6000N 071-54-19.3000W
43-03.676667N 071-54.321667W
43.0612778,-71.9053611
(estimated)
Elevation: 600 ft. / 183 m (estimated)
Variation: 16W (1985)
From city: 3 miles S of HILLSBORO, NH
Time zone: UTC -4 (UTC -5 during Standard Time)
Zip code: 03244

Airport Operations

Airport use: Open to the public
Activation date: 02/1966
Control tower: no
ARTCC: BOSTON CENTER
FSS: BANGOR FLIGHT SERVICE STATION
NOTAMs facility: BGR (NOTAM-D service available)
Attendance: UNATNDD
Wind indicator: yes
Segmented circle: no
Lights: OTS INDEFLY.
Beacon: white-green (lighted land airport)
OTS INDEFLY.

Airport Communications

CTAF/UNICOM: 122.8
WX ASOS at AFN (16 nm S): 135.875 (603-532-6195)
WX AWOS-3PT at EEN (19 nm SW): 119.025 (603-358-6424)
WX ASOS at CON (20 nm NE): 132.325 (603-224-6558)

Nearby radio navigation aids

VOR radial/distance  VOR name  Freq  Var
CONr252/17.3CONCORD VOR/DME112.9015W
EENr061/23.3KEENE VORTAC109.4014W
MHTr311/26.2MANCHESTER VOR/DME114.4015W
GDMr026/31.6GARDNER VOR/DME110.6014W

 
NDB name  Hdg/Dist  Freq  Var  ID
CLAREMONT148/27.523316WCNH -.-. -. ....

Airport Services

Fuel available: 100LL
100LL:SELF SERV FUEL AVBL 24 HRS BY CREDIT CARD SYS.
Parking: tiedowns
Airframe service: NONE
Powerplant service: NONE
Bottled oxygen: NONE
Bulk oxygen: NONE

Runway Information

Runway 2/20

Dimensions: 3260 x 75 ft. / 994 x 23 m
Surface: asphalt, in poor condition
RWY SFC UNEVEN WITH LRG OPEN CRACKS.
Weight bearing capacity: 
Single wheel: 8.0
Runway edge lights: medium intensity
MIRL RWY 02/20 OTS INDEFLY.
Runway edge markings: MARKINGS FADED.
RUNWAY 2  RUNWAY 20
Latitude: 43-03.407730N43-03.944378N
Longitude: 071-54.312915W071-54.329765W
Elevation: 593.0 ft.599.0 ft.
Traffic pattern: leftright
Runway heading: 015 magnetic, 359 true195 magnetic, 179 true
Markings: none, in poor conditionnone
Obstructions: 53 ft. trees, 201 ft. from runway, 108 ft. left of centerline
50 FT GROVE OF TREES AT THR 65 FT LEFT, 30 FT TREE 130 FT FM THR 85 FT RIGHT.
58 ft. trees, 201 ft. from runway, 75 ft. right of centerline
RWY 20 HAS +60 TREES AT THR 90 FT RIGHT.

Airport Ownership and Management from official FAA records

Ownership: Privately-owned
Owner: JAMES T. RYMES
2 MAIN ST
ANTRIM, NH 03440
Phone 603-588-6868
Manager: ROGER SMITH
2 MAIN ST
ANTRIM, NH 03440
Phone 603-588-6868

Airport Operational Statistics

Aircraft based on the field: 16
Single engine airplanes: 15
Ultralights: 1
    
Aircraft operations: avg 72/week *
43% transient general aviation
43% local general aviation
15% military
* for 12-month period ending 31 December 2016

Additional Remarks

PRIOR TO USING ARPT CALL 603-588-6868 FOR ARPT CONDS.
WILDLIFE ON & INVOF ARPT.
FOR CD CTC BOSTON APCH AT 603-594-5551.

Instrument Procedures

There are no published instrument procedures at 8B1.

Some nearby airports with instrument procedures:

KAFN - Jaffrey/Silver Ranch Airport (16 nm S)
KEEN - Dillant-Hopkins Airport (19 nm SW)
KCON - Concord Municipal Airport (20 nm NE)
KMHT - Manchester Airport (22 nm E)
2B3 - Parlin Field Airport (23 nm NW)
 
Loc | Ops | Rwys | IFR | FBO | Links
Com | Nav | Svcs | Stats | Notes
Area around 8B1 (Hawthorne-Feather Airpark)
 
Road maps at: MapQuest Bing Google
 
Aerial photo
WARNING: Photo may not be current or correct
Aerial photo of 8B1 (Hawthorne-Feather Airpark)
Photo by David Jablonski
Photo taken 09-Apr-2006

Do you have a better or more recent aerial photo of Hawthorne-Feather Airpark that you would like to share? If so, please send us your photo.

 
Sectional chart

 
Airport distance calculator
Flying to Hawthorne-Feather Airpark? Find the distance to fly.

From to 8B1

Sunrise and sunset
Times for 20-Sep-2021
 Local
(UTC-4)
 Zulu
(UTC)
Morning civil twilight06:0510:05
Sunrise06:3410:34
Sunset18:4922:49
Evening civil twilight19:1723:17

Current date and time
Zulu (UTC)  20-Sep-2021 14:38:36
Local (UTC-4)  20-Sep-2021 10:38:36
 
METAR
KAFN 
16nm S 
201405Z AUTO 16004KT 10SM BKN015 18/14 A3039 RMK AO2 T01830144
KEEN 
19nm SW 
201356Z AUTO 00000KT 7SM SCT003 12/11 A3040 RMK AO2 SLP299 T01220111 $
KCON 
20nm NE 
201351Z AUTO 00000KT 10SM CLR 17/12 A3040 RMK AO2 SLP294 T01670117
KMHT 
22nm E 
201353Z 00000KT 10SM CLR 18/11 A3038 RMK AO2 SLP298 T01830111
KASH 
25nm SE 
201356Z 00000KT 10SM CLR 17/14 A3040 RMK AO2 SLP298 T01720139
KFIT 
31nm S 
201352Z AUTO 14004KT 10SM CLR 17/11 A3039 RMK AO2 SLP293 T01720106
KVSF 
32nm NW 
201412Z AUTO 00000KT 10SM SCT003 12/11 A3040 RMK AO2 T01170106
TAF
KCON 
20nm NE 
201120Z 2012/2112 13005KT P6SM FEW250 FM210900 00000KT 1/2SM FG VV002
KMHT 
22nm E 
201120Z 2012/2112 15006KT P6SM FEW250 FM211000 00000KT 1SM BR SCT003
NOTAMs
Click for the latest NOTAMs
NOTAMs are issued by the DoD/FAA and will open in a separate window not controlled by AirNav.

 

 
 

FBO, Fuel Providers, and Aircraft Ground Support

  
 Business Name 
 
 Contact 
 
 Services / Description 
 
Fuel Prices
 
Comments
  
Rymes Oil 603-588-6868
no information available

If you are affiliated with Rymes Oil and would like to show here your services, contact info, web link, logo, and more, click here
100LL
SS $4.51 
 Updated 16-Feb-2021
 
   2 read write
SS=Self service
Update Fuel Prices
 

Would you like to see your business listed on this page?

 If your business provides an interesting product or service to pilots, flight crews, aircraft, or users of the Hawthorne-Feather Airpark, you should consider listing it here.  To start the listing process, click on the button below
 
Add a business
 

Other Pages about Hawthorne-Feather Airpark

Update a link
 
Copyright © AirNav, LLC. All rights reserved. Privacy Policy  Contact